Back to catalog

STARLINK-32524

AliveCommunicationsVLEO
NORAD 62159·PAYLOAD·🇺🇸 United States

Launched Nov 30, 2024 from Cape Canaveral Space Force Station

Loading…

Next Passes (next 24 hours)

TLE

FreshSource: CelesTrak SupGP

Epoch: Sep 14, 2026, 22:21 UTC

1 62159C 24224W   26257.93173611 -.00022525  00000+0 -81587-3 0  2576
2 62159  43.0017 172.8361 0001286 262.8238  39.8405 15.27589745    19

Track STARLINK-32524 in real time with AllMySat

Download on the App Store